OpenBCM V1.13 (Linux)

Packet Radio Mailbox

DB0FHN

[JN59NK Nuernberg]

 Login: GUEST





  
UA9CIR > KEPS     28.02.03 10:06l 277 Lines 7266 Bytes #999 (0) @ AMSAT
BID : ORB03058.D
Read: DB0FHN GUEST
Subj: Orbital Elements  03058.MICROS
Path: DB0FHN<DB0RGB<DB0FSG<DB0RBS<DB0SEL<DB0WTS<DB0IUZ<DB0GOS<ON0AR<ON0AR<
      OZ3BUL<OZ5BBS<OZ3DID<OZ8BOX<OZ2DIZ<OZ2BOO<OZ3BOE<UA6ADV<RN6AM<RU9CYA<
      UA9CIR
Sent: 030228/0615Z @:UA9CIR.SVR.RUS.EU #:64956 [Ekaterinburg] $:ORB03058.D
From: UA9CIR@UA9CIR.SVR.RUS.EU
To  : KEPS@AMSAT


HR AMSAT ORBITAL ELEMENTS FOR THE MICROSATS
FROM WA5QGD FORT WORTH,TX February 27, 2003
SEND SUBSCRIBE/UNSUBSCRIBE TO majordomo@amsat.org ONLY
BID: ORB03058.D
TO ALL RADIO AMATEURS BT

Satellite: UO-14
Catalog number: 20437
Epoch time:      03058.65692826
Element set:     174
Inclination:       98.2695 deg
RA of node:       101.8346 deg
Eccentricity:    0.0010660
Arg of perigee:   170.1640 deg
Mean anomaly:     189.9754 deg
Mean motion:   14.31240517 rev/day
Decay rate:        7.0e-07 rev/day^2
Epoch rev:           68379
Checksum:              309

Satellite: AO-16
Catalog number: 20439
Epoch time:      03058.18105172
Element set:     857
Inclination:       98.3157 deg
RA of node:       113.1168 deg
Eccentricity:    0.0010734
Arg of perigee:   178.4857 deg
Mean anomaly:     181.6356 deg
Mean motion:   14.31474626 rev/day
Decay rate:        6.6e-07 rev/day^2
Epoch rev:           68376
Checksum:              316

Satellite: WO-18
Catalog number: 20441
Epoch time:      03057.95167296
Element set:    0023
Inclination:      098.3313 deg
RA of node:       116.0149 deg
Eccentricity:    0.0011570
Arg of perigee:   179.1588 deg
Mean anomaly:     180.9615 deg
Mean motion:   14.31556500 rev/day
Decay rate:        9.6e-07 rev/day^2
Epoch rev:           68378
Checksum:              305

Satellite: LO-19
Catalog number: 20442
Epoch time:      03057.71948015
Element set:     972
Inclination:       98.3446 deg
RA of node:       118.8305 deg
Eccentricity:    0.0011652
Arg of perigee:   179.3442 deg
Mean anomaly:     180.7748 deg
Mean motion:   14.31719873 rev/day
Decay rate:       1.03e-06 rev/day^2
Epoch rev:           68380
Checksum:              313

Satellite: UO-22
Catalog number: 21575
Epoch time:      03057.92041289
Element set:     735
Inclination:       98.1416 deg
RA of node:        49.6212 deg
Eccentricity:    0.0008391
Arg of perigee:   104.7826 deg
Mean anomaly:     255.4293 deg
Mean motion:   14.39160101 rev/day
Decay rate:       2.42e-06 rev/day^2
Epoch rev:           60948
Checksum:              292

Satellite: KO-23
Catalog number: 22077
Epoch time:      03057.96394380
Element set:    0200
Inclination:      066.0868 deg
RA of node:       108.1491 deg
Eccentricity:    0.0015669
Arg of perigee:   271.5674 deg
Mean anomaly:     088.3552 deg
Mean motion:   12.86408787 rev/day
Decay rate:       -3.7e-07 rev/day^2
Epoch rev:           49538
Checksum:              332

Satellite: AO-27
Catalog number: 22825
Epoch time:      03058.50529159
Element set:     496
Inclination:       98.2744 deg
RA of node:        87.7468 deg
Eccentricity:    0.0007566
Arg of perigee:   229.7500 deg
Mean anomaly:     130.3025 deg
Mean motion:   14.28945620 rev/day
Decay rate:        5.6e-07 rev/day^2
Epoch rev:           49115
Checksum:              319

Satellite: IO-26
Catalog number: 22826
Epoch time:      03058.11410755
Element set:     318
Inclination:       98.2739 deg
RA of node:        88.4942 deg
Eccentricity:    0.0007989
Arg of perigee:   233.8890 deg
Mean anomaly:     126.1548 deg
Mean motion:   14.29169106 rev/day
Decay rate:        9.6e-07 rev/day^2
Epoch rev:           49114
Checksum:              330

Satellite: KO-25
Catalog number: 22828
Epoch time:      03058.16238774
Element set:     435
Inclination:       98.2711 deg
RA of node:        88.8050 deg
Eccentricity:    0.0009190
Arg of perigee:   208.8050 deg
Mean anomaly:     151.2624 deg
Mean motion:   14.29510537 rev/day
Decay rate:        6.1e-07 rev/day^2
Epoch rev:           45935
Checksum:              296

Satellite: TO-31
Catalog number: 25396
Epoch time:      03057.97044452
Element set:    0893
Inclination:      098.6243 deg
RA of node:       134.9078 deg
Eccentricity:    0.0003787
Arg of perigee:   107.5577 deg
Mean anomaly:     252.6016 deg
Mean motion:   14.23513936 rev/day
Decay rate:       -4.3e-07 rev/day^2
Epoch rev:           24072
Checksum:              313

Satellite: GO-32
Catalog number: 25397
Epoch time:      03057.92521189
Element set:    0148
Inclination:      098.6209 deg
RA of node:       133.7381 deg
Eccentricity:    0.0002164
Arg of perigee:   112.1282 deg
Mean anomaly:     248.0123 deg
Mean motion:   14.22961622 rev/day
Decay rate:        3.8e-07 rev/day^2
Epoch rev:           24068
Checksum:              283

Satellite: UO-36
Catalog number: 25693
Epoch time:      03058.82999256
Element set:     743
Inclination:       64.5612 deg
RA of node:       342.4399 deg
Eccentricity:    0.0021140
Arg of perigee:   315.4203 deg
Mean anomaly:      44.5205 deg
Mean motion:   14.76396684 rev/day
Decay rate:       -5.8e-07 rev/day^2
Epoch rev:           20762
Checksum:              314

Satellite: AO-37
Catalog number: 26065
Epoch time:      03058.22456049
Element set:     743
Inclination:      100.2100 deg
RA of node:       114.5252 deg
Eccentricity:    0.0036891
Arg of perigee:   263.3051 deg
Mean anomaly:      96.3929 deg
Mean motion:   14.35512369 rev/day
Decay rate:        8.4e-07 rev/day^2
Epoch rev:           16162
Checksum:              278

Satellite: SO-41
Catalog number: 26545
Epoch time:      03057.72746122
Element set:     417
Inclination:       64.5599 deg
RA of node:         6.8464 deg
Eccentricity:    0.0051582
Arg of perigee:   237.4538 deg
Mean anomaly:     122.1586 deg
Mean motion:   14.78999525 rev/day
Decay rate:       5.79e-06 rev/day^2
Epoch rev:           13042
Checksum:              329

Satellite: MO-46
Catalog number: 26548
Epoch time:      03057.80486726
Element set:    0422
Inclination:      064.5586 deg
RA of node:       359.4072 deg
Eccentricity:    0.0044902
Arg of perigee:   236.7402 deg
Mean anomaly:     122.9396 deg
Mean motion:   14.81294406 rev/day
Decay rate:       7.54e-06 rev/day^2
Epoch rev:           13059
Checksum:              321

Satellite: SO-42
Catalog number: 26549
Epoch time:      03057.97240558
Element set:    0704
Inclination:      064.5540 deg
RA of node:       010.2520 deg
Eccentricity:    0.0055924
Arg of perigee:   237.4319 deg
Mean anomaly:     122.1367 deg
Mean motion:   14.77936518 rev/day
Decay rate:       5.00e-06 rev/day^2
Epoch rev:           13038
Checksum:              289

Satellite: NO-44
Catalog number: 26931
Epoch time:      03058.55315393
Element set:     412
Inclination:       67.0473 deg
RA of node:       232.4840 deg
Eccentricity:    0.0005147
Arg of perigee:   268.6501 deg
Mean anomaly:      91.4009 deg
Mean motion:   14.29118761 rev/day
Decay rate:        5.6e-07 rev/day^2
Epoch rev:            7363
Checksum:              285

Satellite: AO-49
Catalog number: 27605
Epoch time:      03058.41576325
Element set:      69
Inclination:       64.5552 deg
RA of node:       170.3763 deg
Eccentricity:    0.0035969
Arg of perigee:   110.2208 deg
Mean anomaly:     250.2757 deg
Mean motion:   14.71384118 rev/day
Decay rate:       3.09e-06 rev/day^2
Epoch rev:            1011
Checksum:              288

Satellite: SO-50
Catalog number: 27607
Epoch time:      03057.80675327
Element set:      62
Inclination:       64.5520 deg
RA of node:       172.7211 deg
Eccentricity:    0.0036896
Arg of perigee:   106.3222 deg
Mean anomaly:     254.1914 deg
Mean motion:   14.69920565 rev/day
Decay rate:       5.83e-06 rev/day^2
Epoch rev:            1001
Checksum:              280



Read previous mail | Read next mail


 13.09.2026 11:17:13lGo back Go up